Location: Bothell
(47.7630°N, 122.2040°W)
Time: 01:48:21
(UTC-07:00)

Amateur Radio Satellites - All Passes

Search period start: 24 July 2016 01:18
Search period end: 25 July 2016 01:18
Location: Bothell, 47.7630°N, 122.2040°W

Satellite Date Start Highest point End Downlink Frequencies (MHz)
Time Altitude Azimuth
QB50P2 24 Jul 01:26:36 01:30:41 43° 291° (WNW) 01:34:45 145.880/145.840
SPROUT 24 Jul 01:27:41 01:31:15 26° 266° (W) 01:34:51 437.525
POLYITAN 1 24 Jul 01:29:15 01:33:20 42° 291° (WNW) 01:37:23 437.675
ITUPSAT 1 24 Jul 01:32:54 01:36:48 25° 62° (ENE) 01:40:43 437.325
ISS 24 Jul 01:51:36 01:54:44 42° 353° (N) 01:57:53 145.825
Oscar 19 24 Jul 02:05:06 02:09:49 34° 96° (E) 02:14:30 437.125/150
NANOSAT C BR1 24 Jul 02:16:53 02:19:43 17° 299° (WNW) 02:22:32 145.865
JAS-2 24 Jul 02:19:00 02:24:09 63° 289° (WNW) 02:29:33 435.910
KKS-1 24 Jul 02:21:40 02:21:55 10° 54° (NE) 02:22:10 437.445
DUCHIFAT 1 24 Jul 02:23:08 02:25:47 16° 300° (WNW) 02:28:26 145.980
Cosmos 2499 24 Jul 02:26:52 02:33:55 31° 63° (ENE) 02:40:29 435.465 / 435.565
SWISSCUBE 24 Jul 02:26:59 02:31:47 82° 75° (ENE) 02:36:36 437.505
MOZHAYETS 4 24 Jul 02:27:49 02:29:44 12° 56° (ENE) 02:31:40
TISAT 1 24 Jul 02:37:15 02:40:13 19° 268° (W) 02:43:14 437.305
QB50P1 24 Jul 02:38:25 02:39:43 11° 303° (WNW) 02:41:02 145.935-145.965
BEESAT 2 24 Jul 02:41:35 02:43:19 12° 26° (NNE) 02:45:04 435.950
BEESAT 3 24 Jul 02:42:23 02:45:00 17° 32° (NNE) 02:47:36 437.485
POPSAT HIP 1 24 Jul 02:45:28 02:45:45 10° 305° (NW) 02:46:02 437.405
BEESAT 24 Jul 02:48:51 02:53:38 71° 258° (WSW) 02:58:26 436.000
BUGSAT 1 24 Jul 02:52:51 02:55:33 17° 299° (WNW) 02:58:15 437.445
Gurwin Techsat 1B 24 Jul 02:55:54 03:01:01 45° 98° (E) 03:06:07 435.225
PCSat 24 Jul 02:56:39 02:59:33 14° 23° (NNE) 03:02:26 145.827
AIST 1 24 Jul 02:57:58 02:59:12 11° 278° (W) 03:00:26
AO-7 24 Jul 03:04:47 03:08:20 13° 83° (E) 03:11:52 29.400- 29.500
GONETS M04 24 Jul 03:06:56 03:15:45 70° 77° (ENE) 03:24:33
STARS 24 Jul 03:07:50 03:10:19 15° 58° (ENE) 03:12:46 437.465
ITUPSAT 1 24 Jul 03:09:47 03:14:24 46° 261° (W) 03:19:03 437.325
ISS 24 Jul 03:28:21 03:31:33 50° 13° (NNE) 03:34:44 145.825
ITAMSAT 1 24 Jul 03:31:32 03:36:13 33° 96° (E) 03:40:50 435.822/435.867
Oscar 19 24 Jul 03:44:27 03:49:08 36° 295° (WNW) 03:53:50 437.125/150
KKS-1 24 Jul 03:53:14 03:57:38 69° 73° (ENE) 04:02:05 437.445
MOZHAYETS 4 24 Jul 04:01:31 04:06:10 83° 75° (ENE) 04:10:50
JAS-2 24 Jul 04:07:19 04:08:18 10° 309° (NW) 04:09:17 435.910
SWISSCUBE 24 Jul 04:07:51 04:10:12 13° 272° (W) 04:12:32 437.505
BEESAT 2 24 Jul 04:18:11 04:22:05 49° 47° (NE) 04:25:59 435.950
BEESAT 3 24 Jul 04:19:17 04:23:17 85° 53° (NE) 04:27:15 437.485
Cosmos 2499 24 Jul 04:19:45 04:27:42 64° 268° (W) 04:35:02 435.465 / 435.565
DANDE 24 Jul 04:23:24 04:27:45 22° 94° (E) 04:31:19 436.750
CUSAT 1 24 Jul 04:34:23 04:38:41 57° 100° (E) 04:42:01 437.405
Gurwin Techsat 1B 24 Jul 04:36:14 04:40:48 30° 297° (WNW) 04:45:21 435.225
PCSat 24 Jul 04:39:14 04:44:25 43° 47° (NE) 04:49:35 145.827
STARS 24 Jul 04:41:43 04:46:06 75° 256° (WSW) 04:50:32 437.465
AO-7 24 Jul 04:54:32 05:02:51 63° 104° (ESE) 05:11:05 29.400- 29.500
GONETS M04 24 Jul 05:04:38 05:11:51 30° 279° (W) 05:19:05
ISS 24 Jul 05:04:51 05:07:59 46° 212° (SSW) 05:11:08 145.825
HORYU 2 24 Jul 05:06:12 05:09:01 16° 90° (E) 05:11:48 437.375
ITAMSAT 1 24 Jul 05:10:56 05:15:44 38° 294° (WNW) 05:20:30 435.822/435.867
CUBESAT XI-V 24 Jul 05:11:25 05:15:57 57° 72° (ENE) 05:20:28 437.345
O/OREOS (USA 219) 24 Jul 05:29:28 05:31:08 12° 41° (NE) 05:32:49 437.305
KKS-1 24 Jul 05:32:20 05:34:42 14° 271° (W) 05:37:05 437.445
MOZHAYETS 4 24 Jul 05:41:58 05:43:57 12° 273° (W) 05:45:55
BRITE-PL 24 Jul 05:48:03 05:50:21 13° 89° (E) 05:52:43 437.365/2234.400
AIST 2 24 Jul 05:49:19 05:52:59 29° 40° (NE) 05:56:39 435.215
BEESAT 2 24 Jul 05:56:37 05:59:38 21° 246° (WSW) 06:02:38 435.950
BEESAT 3 24 Jul 05:59:00 06:00:20 11° 250° (WSW) 06:01:39 437.485
Cubesat XI-IV 24 Jul 06:01:44 06:03:17 11° 85° (E) 06:04:49 437.490
DANDE 24 Jul 06:04:52 06:10:26 48° 284° (WNW) 06:14:39 436.750
Cosmos 2499 24 Jul 06:16:04 06:18:56 12° 290° (WNW) 06:21:45 435.465 / 435.565
CUSAT 1 24 Jul 06:19:38 06:20:45 11° 291° (WNW) 06:21:48 437.405
RS-15 24 Jul 06:20:29 06:28:44 24° 98° (E) 06:37:15 29.354- 29.394
PCSat 24 Jul 06:22:49 06:27:46 37° 247° (WSW) 06:32:41 145.827
CUTE-I 24 Jul 06:24:47 06:28:31 19° 90° (E) 06:32:11 437.470
NOAA 18 24 Jul 06:31:25 06:35:36 21° 91° (E) 06:39:44 137.9125
HORYU 2 24 Jul 06:41:32 06:45:59 61° 288° (WNW) 06:50:23 437.375
Cosmos 2491 24 Jul 06:41:58 06:42:58 10° 41° (NE) 06:43:58 435.465 / 435.565
AO-7 24 Jul 06:47:47 06:55:15 38° 306° (NW) 07:02:41 29.400- 29.500
CUBESAT XI-V 24 Jul 06:50:30 06:53:41 18° 270° (W) 06:56:52 437.345
STRAND 1 24 Jul 06:54:22 06:59:17 47° 68° (ENE) 07:04:13 437.568
NOAA 15 24 Jul 06:55:30 07:00:31 43° 99° (E) 07:05:30 137.62
LilacSat-2 24 Jul 06:56:54 07:00:23 31° 96° (E) 07:03:50 437.200
GOMX 1 24 Jul 07:06:25 07:10:57 36° 96° (E) 07:15:43 467.674
O/OREOS (USA 219) 24 Jul 07:06:59 07:11:29 64° 62° (ENE) 07:16:00 437.305
DOVE 4 24 Jul 07:17:08 07:21:11 24° 92° (E) 07:25:21 437.250
BRITE-PL 24 Jul 07:24:41 07:29:19 82° 286° (WNW) 07:34:20 437.365/2234.400
AIST 2 24 Jul 07:27:39 07:31:37 43° 240° (WSW) 07:35:33 435.215
Cubesat XI-IV 24 Jul 07:38:52 07:44:16 76° 104° (ESE) 07:49:37 437.490
CINEMA 3 24 Jul 07:54:15 07:57:32 17° 88° (E) 08:00:49 145.822/145.860
PRISM 24 Jul 08:02:00 08:05:29 28° 66° (ENE) 08:08:59 437.425
CUTE-I 24 Jul 08:03:44 08:09:05 69° 288° (WNW) 08:14:22 437.470
HO-68 24 Jul 08:06:22 08:12:01 24° 91° (E) 08:17:37 435.675
NOAA 18 24 Jul 08:11:12 08:16:43 64° 290° (WNW) 08:22:11 137.9125
YUBILEINY 24 Jul 08:20:56 08:22:18 10° 67° (ENE) 08:23:41 435.215
RS-15 24 Jul 08:27:39 08:39:11 80° 122° (ESE) 08:51:21 29.354- 29.394
LilacSat-2 24 Jul 08:31:23 08:34:35 24° 294° (WNW) 08:37:45 437.200
CANX-2 24 Jul 08:32:25 08:36:09 30° 95° (E) 08:39:51 2200.000
STRAND 1 24 Jul 08:34:23 08:38:40 26° 266° (W) 08:43:00 437.568
Cosmos 2491 24 Jul 08:34:41 08:42:54 42° 69° (ENE) 08:51:06 435.465 / 435.565
NOAA 15 24 Jul 08:35:35 08:40:09 31° 297° (WNW) 08:44:42 137.62
AO-7 24 Jul 08:42:49 08:45:40 12° 330° (NNW) 08:48:32 29.400- 29.500
GOMX 1 24 Jul 08:44:38 08:48:59 34° 293° (WNW) 08:53:35 467.674
CUTE 1.7 + AOD 2 24 Jul 08:46:24 08:50:20 36° 97° (E) 08:54:13 437.475
AAUSAT CUBESAT 2 24 Jul 08:47:06 08:49:36 16° 90° (E) 08:52:05 437.432
O/OREOS (USA 219) 24 Jul 08:47:37 08:50:23 16° 260° (W) 08:53:09 437.305
ANTELSAT 24 Jul 08:48:45 08:49:53 11° 54° (NE) 08:51:01 437.575/2403.000
SO-50 24 Jul 08:51:34 08:55:28 25° 114° (ESE) 08:59:23 436.795
DOVE 4 24 Jul 08:54:15 08:59:07 52° 289° (WNW) 09:04:11 437.250
BRITE-PL 24 Jul 09:05:21 09:07:12 12° 302° (WNW) 09:09:06 437.365/2234.400
UWE-3 24 Jul 09:08:56 09:12:14 19° 90° (E) 09:15:27 435.000/436.395/437.385
ZACube-1 24 Jul 09:17:36 09:20:13 15° 88° (E) 09:22:47 437.345
FUNcube-1 24 Jul 09:18:40 09:21:08 14° 88° (E) 09:23:34 145.935
Cubesat XI-IV 24 Jul 09:20:02 09:23:46 19° 303° (WNW) 09:27:29 437.490
CUBEBUG 2 24 Jul 09:23:14 09:27:38 36° 96° (E) 09:31:56 437.445
TIGRISAT 24 Jul 09:28:30 09:32:06 23° 62° (ENE) 09:35:44 435.000
CINEMA 3 24 Jul 09:30:08 09:35:09 70° 286° (WNW) 09:40:08 145.822/145.860
SEEDS 24 Jul 09:31:36 09:35:48 79° 103° (ESE) 09:39:58 437.485
PRISM 24 Jul 09:37:09 09:40:44 29° 263° (W) 09:44:21 437.425
UNISAT 6 24 Jul 09:43:08 09:47:12 31° 66° (ENE) 09:51:21 437.425
CUTE-I 24 Jul 09:45:53 09:48:11 13° 308° (NW) 09:50:28 437.470
COMPASS 1 24 Jul 09:49:38 09:53:48 87° 104° (ESE) 09:57:56 437.405
HO-68 24 Jul 09:53:13 10:00:27 76° 290° (WNW) 10:07:37 435.675
NOAA 18 24 Jul 09:54:00 09:56:21 13° 310° (NW) 09:58:41 137.9125
Oscar 11 24 Jul 10:04:34 10:08:42 41° 98° (E) 10:12:46 145.826/435.025
Cosmos 2504 24 Jul 10:07:37 10:13:28 20° 75° (ENE) 10:19:17 435.465 / 435.565
CANX-2 24 Jul 10:08:18 10:11:59 29° 293° (WNW) 10:15:37 2200.000
YUBILEINY 24 Jul 10:08:28 10:16:52 53° 89° (E) 10:25:20 435.215
ANTELSAT 24 Jul 10:21:06 10:25:41 69° 73° (ENE) 10:30:23 437.575/2403.000
AAUSAT CUBESAT 2 24 Jul 10:21:23 10:25:26 54° 288° (WNW) 10:29:26 437.432
QB50P1 24 Jul 10:22:26 10:24:42 14° 59° (ENE) 10:26:59 145.935-145.965
CUTE 1.7 + AOD 2 24 Jul 10:22:34 10:26:01 25° 295° (WNW) 10:29:26 437.475
POPSAT HIP 1 24 Jul 10:28:12 10:30:46 16° 60° (ENE) 10:33:23 437.405
SO-50 24 Jul 10:30:51 10:35:40 57° 313° (NW) 10:40:27 436.795
Cosmos 2491 24 Jul 10:31:37 10:39:57 51° 271° (W) 10:48:17 435.465 / 435.565
M-CUBED/EXP-1 PRIME 24 Jul 10:36:20 10:40:24 29° 100° (E) 10:44:29 437.505
RS-15 24 Jul 10:41:40 10:52:53 47° 331° (NNW) 11:04:38 29.354- 29.394
UWE-3 24 Jul 10:44:28 10:49:02 55° 288° (WNW) 10:53:31 435.000/436.395/437.385
QB50P2 24 Jul 10:47:12 10:50:40 25° 65° (ENE) 10:54:10 145.880/145.840
POLYITAN 1 24 Jul 10:49:48 10:53:18 25° 65° (ENE) 10:56:51 437.675
ZACube-1 24 Jul 10:52:27 10:56:59 67° 287° (WNW) 11:01:25 437.345
JAS-2 24 Jul 10:52:43 10:55:50 15° 55° (NE) 10:58:49 435.910
FUNcube-1 24 Jul 10:53:21 10:57:54 70° 286° (WNW) 11:02:19 145.935
HUMSAT D 24 Jul 10:59:46 11:03:41 35° 97° (E) 11:07:32 437.325/437.525
CUBEBUG 2 24 Jul 11:00:00 11:04:09 30° 294° (WNW) 11:08:14 437.445
TIGRISAT 24 Jul 11:03:59 11:08:27 50° 261° (W) 11:13:02 435.000
AUBIESAT-1 24 Jul 11:05:06 11:09:32 44° 104° (ESE) 11:13:58 437.475
SEEDS 24 Jul 11:09:01 11:10:55 13° 301° (WNW) 11:12:48 437.485
CINEMA 3 24 Jul 11:09:32 11:11:23 12° 305° (NW) 11:13:15 145.822/145.860
DELFI C3 24 Jul 11:11:21 11:15:19 83° 283° (WNW) 11:19:15 145.870
UNISAT 6 24 Jul 11:19:40 11:23:51 34° 264° (W) 11:28:09 437.425
COMPASS 1 24 Jul 11:27:16 11:28:43 12° 302° (WNW) 11:30:10 437.405
NANOSAT C BR1 24 Jul 11:35:12 11:39:24 66° 73° (ENE) 11:43:38 145.865
DUCHIFAT 1 24 Jul 11:41:04 11:45:17 71° 73° (ENE) 11:49:32 145.980
Oscar 11 24 Jul 11:41:12 11:44:36 23° 296° (WNW) 11:48:00 145.826/435.025
HO-68 24 Jul 11:42:14 11:47:05 20° 312° (NW) 11:51:55 435.675
Oscar 19 24 Jul 11:49:49 11:51:50 12° 53° (NE) 11:53:50 437.125/150
50 SAT 24 Jul 11:53:17 11:54:55 13° 90° (E) 11:56:33 437.505
QB50P1 24 Jul 11:55:42 11:59:56 73° 257° (WSW) 12:04:14 145.935-145.965
Cosmos 2504 24 Jul 11:56:38 12:05:30 81° 96° (E) 12:14:22 435.465 / 435.565
AISAT 24 Jul 11:59:39 12:02:45 18° 91° (E) 12:05:51 437.250
ANTELSAT 24 Jul 12:00:11 12:02:54 15° 272° (W) 12:05:41 437.575/2403.000
POPSAT HIP 1 24 Jul 12:01:52 12:06:05 64° 258° (WSW) 12:10:21 437.405
YUBILEINY 24 Jul 12:05:45 12:13:55 41° 292° (WNW) 12:22:12 435.215
BUGSAT 1 24 Jul 12:09:07 12:13:09 64° 73° (ENE) 12:17:16 437.445
M-CUBED/EXP-1 PRIME 24 Jul 12:10:38 12:14:57 40° 297° (WNW) 12:19:22 437.505
DX 1 24 Jul 12:10:57 12:13:45 16° 91° (E) 12:16:31 434.975-435.025
SO-50 24 Jul 12:13:58 12:17:08 17° 335° (NNW) 12:20:17 436.795
ESTCUBE 1 24 Jul 12:20:31 12:24:50 45° 99° (E) 12:29:08 437.505/2401.250
QB50P2 24 Jul 12:22:22 12:26:19 37° 263° (W) 12:30:18 145.880/145.840
AO-7 24 Jul 12:22:31 12:23:12 10° 26° (NNE) 12:23:53 29.400- 29.500
POLYITAN 1 24 Jul 12:25:01 12:28:58 36° 263° (W) 12:32:57 437.675
UKube-1 24 Jul 12:30:22 12:33:36 20° 93° (E) 12:36:50 .
FUNcube-1 24 Jul 12:32:40 12:33:15 10° 305° (NW) 12:33:51 145.935
JAS-2 24 Jul 12:34:09 12:40:16 81° 74° (ENE) 12:45:46 435.910
HUMSAT D 24 Jul 12:35:41 12:39:10 25° 295° (WNW) 12:42:35 437.325/437.525
AUBIESAT-1 24 Jul 12:39:55 12:43:46 27° 301° (WNW) 12:47:39 437.475
Gurwin Techsat 1B 24 Jul 12:43:01 12:46:24 17° 56° (NE) 12:49:48 435.225
VELOX 1 24 Jul 12:50:39 12:55:02 54° 101° (E) 12:59:22 145.980
RS-15 24 Jul 12:58:22 13:09:12 35° 5° (N) 13:20:16 29.354- 29.394
CUBEBUG 1 24 Jul 13:00:14 13:04:38 78° 103° (ESE) 13:09:02 437.445
SPROUT 24 Jul 13:09:18 13:13:26 42° 98° (E) 13:17:31 437.525
NANOSAT C BR1 24 Jul 13:13:24 13:15:35 14° 271° (W) 13:17:47 145.865
ITAMSAT 1 24 Jul 13:17:02 13:19:15 13° 52° (NE) 13:21:28 435.822/435.867
DUCHIFAT 1 24 Jul 13:19:35 13:21:28 13° 272° (W) 13:23:23 145.980
Oscar 19 24 Jul 13:25:10 13:30:15 70° 72° (ENE) 13:35:22 437.125/150
50 SAT 24 Jul 13:25:22 13:28:54 52° 288° (WNW) 13:32:24 437.505
AISAT 24 Jul 13:35:13 13:39:33 53° 289° (WNW) 13:43:54 437.250
DX 1 24 Jul 13:46:00 13:50:18 58° 289° (WNW) 13:54:36 434.975-435.025
BUGSAT 1 24 Jul 13:47:01 13:48:59 13° 271° (W) 13:51:00 437.445
AIST 1 24 Jul 13:50:47 13:54:42 37° 92° (E) 13:58:39
Cosmos 2504 24 Jul 13:52:32 13:59:54 28° 298° (WNW) 14:07:16 435.465 / 435.565
ESTCUBE 1 24 Jul 13:57:54 14:01:24 23° 297° (WNW) 14:04:54 437.505/2401.250
SO-50 24 Jul 13:58:56 13:59:36 10° 359° (N) 14:00:17 436.795
UKube-1 24 Jul 14:05:44 14:09:52 45° 291° (WNW) 14:14:00 .
AO-7 24 Jul 14:06:18 14:13:18 31° 51° (NE) 14:20:19 29.400- 29.500
YUBILEINY 24 Jul 14:13:23 14:13:56 10° 319° (NW) 14:14:28 435.215
TISAT 1 24 Jul 14:16:06 14:20:18 52° 100° (E) 14:24:27 437.305
Gurwin Techsat 1B 24 Jul 14:20:21 14:25:41 85° 255° (WSW) 14:31:04 435.225
GONETS M04 24 Jul 14:20:40 14:25:16 16° 72° (ENE) 14:29:53
JAS-2 24 Jul 14:22:11 14:25:54 17° 270° (W) 14:29:27 435.910
SWISSCUBE 24 Jul 14:24:56 14:27:53 16° 90° (E) 14:30:50 437.505
AO-85 24 Jul 14:25:35 14:29:53 25° 114° (ESE) 14:34:04 145.980
VELOX 1 24 Jul 14:27:57 14:31:08 20° 299° (WNW) 14:34:19 145.980
CUBEBUG 1 24 Jul 14:38:02 14:40:21 14° 301° (WNW) 14:42:40 437.445
SPROUT 24 Jul 14:45:44 14:49:09 23° 296° (WNW) 14:52:32 437.525
BEESAT 24 Jul 14:46:04 14:49:51 23° 93° (E) 14:53:37 436.000
ITAMSAT 1 24 Jul 14:52:37 14:57:48 70° 72° (ENE) 15:03:02 435.822/435.867
CUSAT 1 24 Jul 15:03:09 15:05:42 35° 76° (ENE) 15:08:38 437.405
ITUPSAT 1 24 Jul 15:06:45 15:11:07 34° 97° (E) 15:15:27 437.325
Oscar 19 24 Jul 15:06:45 15:10:06 17° 271° (W) 15:13:28 437.125/150
Cosmos 2499 24 Jul 15:08:06 15:14:41 24° 78° (ENE) 15:21:10 435.465 / 435.565
RS-15 24 Jul 15:12:59 15:25:03 56° 37° (NE) 15:37:08 29.354- 29.394
AIST 1 24 Jul 15:29:06 15:32:26 22° 291° (WNW) 15:35:50
SO-50 24 Jul 15:39:06 15:42:06 16° 24° (NNE) 15:45:03 436.795
KKS-1 24 Jul 15:43:38 15:44:21 10° 87° (E) 15:45:03 437.445
TISAT 1 24 Jul 15:52:36 15:55:35 19° 298° (WNW) 15:58:34 437.305
MOZHAYETS 4 24 Jul 15:54:24 15:57:07 15° 89° (E) 15:59:49
AO-7 24 Jul 15:56:59 16:05:22 78° 252° (WSW) 16:13:49 29.400- 29.500
SWISSCUBE 24 Jul 16:01:25 16:06:11 68° 288° (WNW) 16:10:53 437.505
Gurwin Techsat 1B 24 Jul 16:04:08 16:06:27 13° 274° (W) 16:08:47 435.225
AO-85 24 Jul 16:04:47 16:10:05 63° 311° (NW) 16:15:06 145.980
HORYU 2 24 Jul 16:07:07 16:10:42 24° 63° (ENE) 16:14:18 437.375
GONETS M04 24 Jul 16:11:48 16:20:24 71° 94° (E) 16:29:04
BEESAT 24 Jul 16:23:18 16:27:53 47° 291° (WNW) 16:32:26 436.000
NOAA 18 24 Jul 16:25:04 16:26:30 11° 48° (NE) 16:27:56 137.9125
STARS 24 Jul 16:28:49 16:31:33 16° 90° (E) 16:34:15 437.465
ITAMSAT 1 24 Jul 16:34:18 16:37:48 18° 270° (W) 16:41:20 435.822/435.867
DANDE 24 Jul 16:40:08 16:42:29 30° 264° (W) 16:44:52 436.750
NOAA 15 24 Jul 16:41:52 16:45:06 17° 56° (NE) 16:48:19 137.62
ITUPSAT 1 24 Jul 16:44:41 16:48:55 32° 295° (WNW) 16:53:07 437.325
Cosmos 2499 24 Jul 16:57:53 17:06:48 87° 279° (W) 17:15:33 435.465 / 435.565
BRITE-PL 24 Jul 17:02:40 17:05:36 19° 63° (ENE) 17:08:33 437.365/2234.400
CUBESAT XI-V 24 Jul 17:06:56 17:08:08 11° 86° (E) 17:09:19 437.345
KKS-1 24 Jul 17:17:05 17:21:36 87° 105° (ESE) 17:26:06 437.445
SO-50 24 Jul 17:18:58 17:23:37 56° 47° (NE) 17:28:05 436.795
Cubesat XI-IV 24 Jul 17:25:30 17:30:01 28° 62° (ENE) 17:34:32 437.490
RS-15 24 Jul 17:25:58 17:38:00 63° 244° (WSW) 17:49:55 29.354- 29.394
MOZHAYETS 4 24 Jul 17:30:12 17:34:46 66° 287° (WNW) 17:39:17
SWISSCUBE 24 Jul 17:41:54 17:43:05 11° 307° (NW) 17:44:15 437.505
LilacSat-2 24 Jul 17:42:11 17:45:26 26° 67° (ENE) 17:48:42 437.200
HORYU 2 24 Jul 17:42:45 17:47:02 43° 261° (W) 17:51:21 437.375
AO-85 24 Jul 17:47:53 17:51:29 19° 332° (NNW) 17:54:56 145.980
CUTE-I 24 Jul 17:49:27 17:54:29 43° 67° (ENE) 17:59:32 437.470
AO-7 24 Jul 17:54:10 17:59:29 18° 273° (W) 18:04:52 29.400- 29.500
NOAA 18 24 Jul 18:00:37 18:06:00 55° 68° (ENE) 18:11:25 137.9125
STARS 24 Jul 18:03:54 18:08:18 62° 288° (WNW) 18:12:42 437.465
GONETS M04 24 Jul 18:10:37 18:18:03 31° 297° (WNW) 18:25:33
GOMX 1 24 Jul 18:18:27 18:22:27 47° 71° (ENE) 18:26:37 467.674
NOAA 15 24 Jul 18:18:56 18:24:12 87° 254° (WSW) 18:29:30 137.62
DOVE 4 24 Jul 18:26:21 18:30:03 29° 65° (ENE) 18:33:55 437.250
HO-68 24 Jul 18:39:00 18:44:52 28° 54° (NE) 18:50:44 435.675
BRITE-PL 24 Jul 18:39:49 18:43:49 46° 261° (W) 18:47:52 437.365/2234.400
CUBESAT XI-V 24 Jul 18:41:34 18:46:13 88° 112° (ESE) 18:50:49 437.345
SEEDS 24 Jul 18:54:22 18:55:23 11° 57° (ENE) 18:56:24 437.485
Cosmos 2499 24 Jul 18:54:27 19:01:13 24° 301° (WNW) 19:07:54 435.465 / 435.565
KKS-1 24 Jul 18:55:21 18:57:32 13° 303° (WNW) 18:59:42 437.445
CINEMA 3 24 Jul 18:59:13 19:02:38 21° 62° (ENE) 19:06:12 145.822/145.860
SO-50 24 Jul 19:00:07 19:03:44 23° 247° (WSW) 19:07:15 436.795
STRAND 1 24 Jul 19:03:35 19:05:20 12° 86° (E) 19:07:07 437.568
Cubesat XI-IV 24 Jul 19:04:38 19:09:50 50° 260° (W) 19:15:05 437.490
COMPASS 1 24 Jul 19:11:11 19:12:29 11° 58° (ENE) 19:13:49 437.405
LilacSat-2 24 Jul 19:16:15 19:19:39 29° 265° (W) 19:23:06 437.200
PCSat 24 Jul 19:26:13 19:29:41 17° 105° (ESE) 19:33:10 145.827
CANX-2 24 Jul 19:28:13 19:32:05 33° 68° (ENE) 19:35:56 2200.000
CUTE-I 24 Jul 19:29:55 19:34:39 31° 265° (W) 19:39:25 437.470
AO-85 24 Jul 19:33:17 19:33:55 10° 356° (N) 19:34:32 145.980
AAUSAT CUBESAT 2 24 Jul 19:40:41 19:43:27 18° 62° (ENE) 19:46:13 437.432
RS-15 24 Jul 19:41:24 19:47:47 16° 267° (W) 19:54:09 29.354- 29.394
CUTE 1.7 + AOD 2 24 Jul 19:42:02 19:46:02 40° 70° (ENE) 19:50:03 437.475
NOAA 18 24 Jul 19:42:29 19:46:59 25° 267° (W) 19:51:32 137.9125
BEESAT 3 24 Jul 19:50:03 19:53:49 47° 121° (ESE) 19:57:39 437.485
BEESAT 2 24 Jul 19:50:57 19:54:20 27° 117° (ESE) 19:57:44 435.950
GOMX 1 24 Jul 19:58:04 20:00:54 18° 270° (W) 20:03:50 467.674
NOAA 15 24 Jul 20:02:24 20:04:45 13° 273° (W) 20:07:07 137.62
DOVE 4 24 Jul 20:03:52 20:07:43 32° 265° (W) 20:11:44 437.250
UWE-3 24 Jul 20:08:55 20:12:32 24° 63° (ENE) 20:16:14 435.000/436.395/437.385
YUBILEINY 24 Jul 20:14:14 20:21:59 32° 64° (ENE) 20:29:39 435.215
ZACube-1 24 Jul 20:16:22 20:19:35 19° 61° (ENE) 20:22:50 437.345
FUNcube-1 24 Jul 20:17:08 20:20:16 19° 61° (ENE) 20:23:25 145.935
PHONESAT 2.4 24 Jul 20:20:06 20:22:25 20° 173° (S) 20:24:46 2401.200-2431.200
CUBESAT XI-V 24 Jul 20:20:42 20:22:55 13° 303° (WNW) 20:25:09 437.345
AUBIESAT-1 24 Jul 20:22:49 20:24:24 12° 50° (NE) 20:26:00 437.475
CUBEBUG 2 24 Jul 20:24:10 20:28:31 43° 69° (ENE) 20:32:59 437.445
HO-68 24 Jul 20:24:48 20:31:59 74° 255° (WSW) 20:39:14 435.675
SEEDS 24 Jul 20:26:08 20:30:22 82° 75° (ENE) 20:34:37 437.485
DELFI C3 24 Jul 20:29:08 20:29:51 10° 58° (ENE) 20:30:33 145.870
CINEMA 3 24 Jul 20:35:02 20:39:24 52° 261° (W) 20:44:02 145.822/145.860
STRAND 1 24 Jul 20:40:11 20:45:20 83° 104° (ESE) 20:50:27 437.568
COMPASS 1 24 Jul 20:43:12 20:47:24 89° 74° (ENE) 20:51:36 437.405
Oscar 11 24 Jul 21:02:15 21:06:26 49° 71° (ENE) 21:10:39 145.826/435.025
CANX-2 24 Jul 21:04:19 21:07:58 27° 266° (W) 21:11:38 2200.000
PCSat 24 Jul 21:06:58 21:12:24 82° 303° (WNW) 21:17:53 145.827
AO-85 24 Jul 21:13:50 21:16:29 15° 22° (NNE) 21:19:00 145.980
AAUSAT CUBESAT 2 24 Jul 21:14:30 21:18:34 53° 260° (W) 21:22:39 437.432
PRISM 24 Jul 21:14:55 21:18:25 27° 96° (E) 21:21:55 437.425
CUTE 1.7 + AOD 2 24 Jul 21:18:40 21:22:02 22° 267° (W) 21:25:25 437.475
O/OREOS (USA 219) 24 Jul 21:22:50 21:26:56 37° 107° (ESE) 21:31:05 437.305
M-CUBED/EXP-1 PRIME 24 Jul 21:25:57 21:29:37 53° 65° (ENE) 21:33:37 437.505
BEESAT 2 24 Jul 21:28:20 21:32:03 38° 316° (NW) 21:35:49 435.950
BEESAT 3 24 Jul 21:28:24 21:31:43 25° 321° (NW) 21:35:02 437.485
AIST 2 24 Jul 21:29:21 21:31:57 16° 112° (ESE) 21:34:33 435.215
Cosmos 2491 24 Jul 21:40:30 21:48:27 42° 86° (E) 21:56:25 435.465 / 435.565
UWE-3 24 Jul 21:44:20 21:48:43 46° 262° (W) 21:53:14 435.000/436.395/437.385
Cosmos 2504 24 Jul 21:46:12 21:53:52 37° 67° (ENE) 22:00:59 435.465 / 435.565
ZACube-1 24 Jul 21:50:59 21:55:27 58° 260° (W) 22:00:00 437.345
FUNcube-1 24 Jul 21:51:35 21:56:03 61° 260° (W) 22:00:37 145.935
HUMSAT D 24 Jul 21:53:53 21:57:54 39° 69° (ENE) 22:01:55 437.325/437.525
AUBIESAT-1 24 Jul 21:54:20 21:58:07 88° 69° (ENE) 22:02:16 437.475
PHONESAT 2.4 24 Jul 21:56:08 21:58:23 19° 190° (S) 22:00:38 2401.200-2431.200
DELFI C3 24 Jul 22:00:04 22:04:03 88° 75° (ENE) 22:08:03 145.870
CUBEBUG 2 24 Jul 22:01:37 22:05:19 24° 268° (W) 22:09:07 437.445
SEEDS 24 Jul 22:05:35 22:06:39 11° 273° (W) 22:07:44 437.485
YUBILEINY 24 Jul 22:10:46 22:19:32 69° 267° (W) 22:28:14 435.215
ANTELSAT 24 Jul 22:11:33 22:13:22 12° 86° (E) 22:15:09 437.575/2403.000
HO-68 24 Jul 22:17:07 22:20:56 15° 275° (W) 22:24:46 435.675
VELOX 1 24 Jul 22:19:09 22:19:41 10° 55° (NE) 22:20:13 145.980
STRAND 1 24 Jul 22:20:40 22:23:53 17° 303° (WNW) 22:27:04 437.568
CUBEBUG 1 24 Jul 22:25:55 22:27:52 13° 58° (ENE) 22:29:50 437.445
50 SAT 24 Jul 22:35:04 22:36:13 11° 60° (ENE) 22:37:22 437.505
Oscar 11 24 Jul 22:39:43 22:42:51 19° 269° (W) 22:45:59 145.826/435.025
PRISM 24 Jul 22:50:08 22:53:44 31° 293° (WNW) 22:57:20 437.425
TIGRISAT 24 Jul 22:52:21 22:56:23 28° 94° (E) 23:00:20 435.000
PCSat 24 Jul 22:52:34 22:56:39 21° 326° (NNW) 23:00:45 145.827
AO-85 24 Jul 22:53:39 22:58:07 48° 45° (NE) 23:02:11 145.980
AISAT 24 Jul 23:00:09 23:03:43 25° 64° (ENE) 23:07:19 437.250
M-CUBED/EXP-1 PRIME 24 Jul 23:02:20 23:04:35 15° 266° (W) 23:06:56 437.505
O/OREOS (USA 219) 24 Jul 23:02:32 23:06:26 29° 307° (NW) 23:10:21 437.305
AIST 2 24 Jul 23:05:53 23:09:58 65° 310° (NW) 23:14:06 435.215
UNISAT 6 24 Jul 23:07:33 23:12:00 41° 97° (E) 23:16:21 437.425
DX 1 24 Jul 23:09:32 23:12:54 23° 63° (ENE) 23:16:18 434.975-435.025
BEESAT 2 24 Jul 23:10:03 23:11:00 11° 338° (NNW) 23:11:56 435.950
ISS 24 Jul 23:22:08 23:25:16 46° 148° (SSE) 23:28:25 145.825
ESTCUBE 1 24 Jul 23:23:02 23:27:28 62° 72° (ENE) 23:31:55 437.505/2401.250
UKube-1 24 Jul 23:27:57 23:31:35 27° 65° (ENE) 23:35:13 .
HUMSAT D 24 Jul 23:30:10 23:33:39 23° 267° (W) 23:37:08 437.325/437.525
Cosmos 2491 24 Jul 23:36:44 23:45:08 51° 288° (WNW) 23:53:36 435.465 / 435.565
QB50P1 24 Jul 23:38:19 23:40:45 15° 89° (E) 23:43:10 145.935-145.965
Cosmos 2504 24 Jul 23:39:35 23:47:37 54° 270° (W) 23:55:03 435.465 / 435.565
POPSAT HIP 1 24 Jul 23:44:14 23:47:01 17° 90° (E) 23:49:47 437.405
ANTELSAT 24 Jul 23:46:02 23:50:45 86° 287° (WNW) 23:55:21 437.575/2403.000
VELOX 1 24 Jul 23:50:58 23:55:20 72° 73° (ENE) 23:59:44 145.980
AIST 1 24 Jul 23:54:53 23:57:25 15° 65° (ENE) 23:59:58
CUBEBUG 1 24 Jul 23:59:13 00:03:32 84° 256° (WSW) 00:07:54 437.445
QB50P2 25 Jul 00:03:48 00:07:31 27° 95° (E) 00:11:11 145.880/145.840
50 SAT 25 Jul 00:05:40 00:09:20 72° 258° (WSW) 00:13:01 437.505
SPROUT 25 Jul 00:05:51 00:09:58 48° 71° (ENE) 00:14:07 437.525
POLYITAN 1 25 Jul 00:06:26 00:10:10 28° 95° (E) 00:13:52 437.675
YUBILEINY 25 Jul 00:10:04 00:14:34 15° 289° (WNW) 00:19:05 435.215
GONETS M04 25 Jul 00:24:37 00:26:10 10° 42° (NE) 00:27:43
TIGRISAT 25 Jul 00:28:50 00:33:08 37° 293° (WNW) 00:37:21 435.000
AO-85 25 Jul 00:34:44 00:38:14 23° 247° (WSW) 00:41:32 145.980
AISAT 25 Jul 00:35:55 00:40:01 39° 262° (W) 00:44:10 437.250
UNISAT 6 25 Jul 00:44:38 00:48:31 26° 296° (WNW) 00:52:20 437.425
DX 1 25 Jul 00:44:45 00:48:51 43° 261° (W) 00:53:01 434.975-435.025
AIST 2 25 Jul 00:46:50 00:49:16 15° 332° (NNW) 00:51:42 435.215
NANOSAT C BR1 25 Jul 00:51:44 00:56:03 77° 103° (ESE) 01:00:19 145.865
DUCHIFAT 1 25 Jul 00:57:19 01:01:37 82° 104° (ESE) 01:05:53 145.980
ISS 25 Jul 00:58:32 01:01:43 50° 347° (NNW) 01:04:55 145.825
ESTCUBE 1 25 Jul 01:01:57 01:04:42 16° 270° (W) 01:07:28 437.505/2401.250
UKube-1 25 Jul 01:03:35 01:07:31 34° 263° (W) 01:11:29 .
